[ hide orbit diagram ]
For accurate long-term ephemerides, please instead use our Horizons system.This orbit viewer was implemented using two-body methods, and hence should not be used for determining accurate long-term trajectories (over several years or decades) or planetary encounter circumstances.
Orbital Elements at Epoch 2459000.5 (2020-May-31.0) TDB
Reference: JPL 27 (heliocentric ecliptic J2000)
Element | Value | Uncertainty (1-sigma) | Units |
e | .1041892026337968 | 3.9795e-08 | |
a | 2.236341714845451 | 6.9238e-09 | au |
q | 2.003339054759006 | 8.8523e-08 | au |
i | 4.451681063855639 | 4.4207e-06 | deg |
node | 154.816772231757 | 4.8663e-05 | deg |
peri | 2.223835226457595 | 5.2136e-05 | deg |
M | 269.3116998918088 | 1.9738e-05 | deg |
tp | 2459308.219086682605 (2021-Apr-03.71908668) | 6.7552e-05 | TDB |
period | 1221.534322217735 3.34 | 5.6729e-06 1.553e-08 | d yr |
n | .2947113261184577 | 1.3687e-09 | deg/d |
Q | 2.469344374931896 | 7.6452e-09 | au |
|
| | Orbit Determination Parameters
Additional Information
|
[ show covariance matrix ]
Physical Parameter Table
Parameter |
Symbol |
Value |
Units |
Sigma |
Reference |
Notes |
absolute magnitude |
H |
14.7 |
|
n/a |
MPO449030 |
|
|
12094 Mazumder | Discovered 1998 Apr. 21 by the Lincoln Laboratory Near-Earth Asteroid Research Team at Socorro. |
Mark Mohan Mazumder (b. 1985) is a finalist in the 2002 Intel International Science and Engineering Fair for his medicine and health project. He attends the Little Rock Central High School, Little Rock, Arkansas, U.S.A. |
NOTE: some special characters may not display properly (any characters within {} are an attempt to place the proper accent above a character) |
Reference: 20020724/MPCPages.arc | Last Updated: 2003-10-02 |
|
Alternate Designations
1998 HX99 = 1991 CB6 = 1992 OQ3 |
|
|